Knox Cnty, Mount Vernon, OH, OH

4:48 AM EDT on October 21, 2019 (GMT -0400)
Knox Cnty, Mount Vernon, OH

Weather History for K4I3 - July, 2019

Change the Weather History Date:

Tuesday, July 16, 2019

  Actual Average (KVTA) Record (KVTA)
Temperature  
Mean Temperature 78 °F -  
Max Temperature 86 °F 85 °F 100 °F (1988)
Min Temperature 69 °F 62 °F 45 °F (1939)
Cooling Degree Days 12    
Growing Degree Days 28 (Base 50)    
Moisture  
Dew Point 72 °F    
Average Humidity 90    
Maximum Humidity 100    
Minimum Humidity 66    
Precipitation  
Precipitation 0.32 in - - ()
Sea Level Pressure  
Sea Level Pressure 30.07 in    
Wind  
Wind Speed 4 mph (SSW)    
Max Wind Speed 25 mph    
Max Gust Speed 34 mph    
Visibility 8 miles    
Events Rain    
Averages and records for this station are not official NWS values.
T = Trace of Precipitation, MM = Missing Value Source: NWS Daily Summary

Daily Weather History Graph

Daily Weather History Graph

Search for Another Location

Airport or City:

Astronomy

Jul. 16, 2019 Rise Set
Actual Time 6:13 AM EDT 8:58 PM EDT
Civil Twilight 5:41 AM EDT 9:30 PM EDT
Nautical Twilight 5:01 AM EDT 10:10 PM EDT
Astronomical Twilight 4:15 AM EDT 10:55 PM EDT
Moon 9:03 PM EDT (7/16) 5:50 AM EDT (7/16)
Length of Visible Light 15h 48m
Length of Day
14h 44m
Full, 100% of the Moon is Illuminated
Jul 16
Full
Jul 16
Full
Jul 24
Last Quarter
Jul 31
New
Aug 7
First Quarter

Hourly Weather History & Observations

Time (EDT) Temp. Heat Index Dew Point Humidity Pressure Visibility Wind Dir Wind Speed Gust Speed Precip Events Conditions
12:15 AM 71.6 °F - 71.6 °F 100% 30.12 in 5.0 mi SSW 4.6 mph - N/A   Clear
12:35 AM 69.8 °F - 69.8 °F 100% 30.12 in 7.0 mi SSW 3.5 mph - N/A   Clear
12:59 AM 69.8 °F - 69.8 °F 100% 30.13 in 5.0 mi Calm Calm - N/A   Clear
1:17 AM 69.8 °F - 69.8 °F 100% 30.12 in 5.0 mi Calm Calm - N/A   Clear
1:36 AM 69.8 °F - 69.8 °F 100% 30.12 in 4.0 mi Calm Calm - N/A   Clear
1:55 AM 69.8 °F - 69.8 °F 100% 30.12 in 4.0 mi Calm Calm - N/A   Clear
2:15 AM 69.8 °F - 69.8 °F 100% 30.11 in 2.0 mi Calm Calm - N/A   Mist
2:39 AM 69.8 °F - 69.8 °F 100% 30.11 in 4.0 mi SW 3.5 mph - N/A   Clear
2:57 AM 69.8 °F - 69.8 °F 100% 30.11 in 4.0 mi Calm Calm - N/A   Clear
3:16 AM 69.8 °F - 69.8 °F 100% 30.10 in 2.5 mi Calm Calm - N/A   Mist
3:35 AM 69.8 °F - 69.8 °F 100% 30.10 in 3.0 mi Calm Calm - N/A   Clear
3:55 AM 69.8 °F - 69.8 °F 100% 30.09 in 3.0 mi Calm Calm - N/A   Clear
4:19 AM 69.8 °F - 69.8 °F 100% 30.10 in 3.0 mi SSW 4.6 mph - N/A   Mist
4:37 AM 69.8 °F - 69.8 °F 100% 30.10 in 3.0 mi South 4.6 mph - N/A   Mist
4:55 AM 69.8 °F - 69.8 °F 100% 30.11 in 4.0 mi SSW 4.6 mph - N/A   Scattered Clouds
5:15 AM 69.8 °F - 69.8 °F 100% 30.10 in 5.0 mi SSW 3.5 mph - N/A   Clear
5:35 AM 69.8 °F - 69.8 °F 100% 30.10 in 7.0 mi SSW 4.6 mph - N/A   Clear
5:59 AM 69.8 °F - 69.8 °F 100% 30.11 in 7.0 mi SW 4.6 mph - N/A   Clear
6:17 AM 69.8 °F - 69.8 °F 100% 30.11 in 5.0 mi SSW 3.5 mph - N/A   Clear
6:35 AM 69.8 °F - 69.8 °F 100% 30.11 in 4.0 mi Calm Calm - N/A   Clear
6:55 AM 69.8 °F - 69.8 °F 100% 30.11 in 4.0 mi SW 3.5 mph - N/A   Clear
7:15 AM 69.8 °F - 69.8 °F 100% 30.12 in 4.0 mi SSW 3.5 mph - N/A   Clear
7:39 AM 69.8 °F - 69.8 °F 100% 30.12 in 4.0 mi SSW 4.6 mph - N/A   Clear
7:57 AM 71.6 °F - 71.6 °F 100% 30.12 in 5.0 mi SSW 4.6 mph - N/A   Clear
8:15 AM 71.6 °F - 71.6 °F 100% 30.12 in 7.0 mi SSW 3.5 mph - N/A   Clear
8:35 AM 71.6 °F - 71.6 °F 100% 30.12 in 10.0 mi SSW 4.6 mph - N/A   Clear
8:55 AM 73.4 °F - 73.4 °F 100% 30.12 in 10.0 mi SW 5.8 mph - N/A   Clear
9:19 AM 73.4 °F - 73.4 °F 100% 30.12 in 10.0 mi SW 4.6 mph - N/A   Clear
9:37 AM 75.2 °F - 73.4 °F 94% 30.12 in 10.0 mi SSW 4.6 mph - N/A   Clear
9:55 AM 75.2 °F - 73.4 °F 94% 30.11 in 10.0 mi SSW 4.6 mph - N/A   Clear
10:15 AM 77.0 °F - 73.4 °F 89% 30.11 in 10.0 mi SSW 5.8 mph - N/A   Clear
10:35 AM 77.0 °F - 75.2 °F 94% 30.11 in 10.0 mi South 5.8 mph - N/A   Clear
10:58 AM 77.0 °F - 73.4 °F 89% 30.12 in 10.0 mi South 4.6 mph - N/A   Clear
11:17 AM 77.0 °F - 75.2 °F 94% 30.12 in 10.0 mi South 4.6 mph - N/A   Clear
11:35 AM 77.0 °F - 73.4 °F 89% 30.11 in 10.0 mi South 5.8 mph - N/A   Clear
11:55 AM 78.8 °F - 73.4 °F 83% 30.11 in 10.0 mi South 5.8 mph - N/A   Clear
12:15 PM 78.8 °F - 75.2 °F 89% 30.11 in 10.0 mi South 4.6 mph - N/A   Clear
12:38 PM 78.8 °F - 75.2 °F 89% 30.11 in 10.0 mi South 5.8 mph - N/A   Clear
12:56 PM 80.6 °F 86.2 °F 75.2 °F 84% 30.11 in 10.0 mi South 4.6 mph - N/A   Clear
1:15 PM 80.6 °F 85.4 °F 73.4 °F 79% 30.10 in 10.0 mi South 6.9 mph - N/A   Clear
1:35 PM 82.4 °F 89.5 °F 75.2 °F 79% 30.10 in 10.0 mi South 5.8 mph - N/A   Clear
1:55 PM 80.6 °F 86.2 °F 75.2 °F 84% 30.09 in 10.0 mi South 5.8 mph - N/A   Clear
2:18 PM 82.4 °F 89.5 °F 75.2 °F 79% 30.08 in 10.0 mi South 5.8 mph - N/A   Clear
2:36 PM 82.4 °F 88.2 °F 73.4 °F 74% 30.08 in 10.0 mi South 9.2 mph - N/A   Clear
2:55 PM 84.2 °F 92.3 °F 75.2 °F 74% 30.06 in 10.0 mi South 5.8 mph - N/A   Clear
3:15 PM 86.0 °F 95.1 °F 75.2 °F 70% 30.06 in 10.0 mi South 9.2 mph - N/A   Clear
3:35 PM 86.0 °F 93.4 °F 73.4 °F 66% 30.05 in 10.0 mi South 11.5 mph 16.1 mph N/A   Clear
3:58 PM 84.2 °F 90.9 °F 73.4 °F 70% 30.04 in 10.0 mi South 10.4 mph - N/A   Scattered Clouds
4:16 PM 86.0 °F 95.1 °F 75.2 °F 70% 30.03 in 10.0 mi South 10.4 mph - N/A   Scattered Clouds
4:35 PM 86.0 °F 93.4 °F 73.4 °F 66% 30.03 in 10.0 mi South 12.7 mph 17.3 mph N/A   Clear
4:56 PM 86.0 °F 93.4 °F 73.4 °F 66% 30.02 in 10.0 mi South 6.9 mph - N/A   Clear
5:15 PM 86.0 °F 93.4 °F 73.4 °F 66% 30.02 in 10.0 mi South 10.4 mph - N/A   Clear
5:38 PM 86.0 °F 95.1 °F 75.2 °F 70% 30.01 in 10.0 mi South 6.9 mph - N/A   Scattered Clouds
5:56 PM 86.0 °F 95.1 °F 75.2 °F 70% 30.01 in 10.0 mi South 12.7 mph 18.4 mph N/A   Clear
6:15 PM 86.0 °F 95.1 °F 75.2 °F 70% 30.00 in 10.0 mi South 9.2 mph - N/A   Clear
6:35 PM 82.4 °F 88.2 °F 73.4 °F 74% 30.00 in 10.0 mi South 8.1 mph - N/A   Clear
6:55 PM 82.4 °F 88.2 °F 73.4 °F 74% 30.00 in 10.0 mi South 6.9 mph - N/A   Clear
7:00 PM 82.4 °F 88.2 °F 73.4 °F 74% 30.00 in 10.0 mi South 8.1 mph - N/A   Clear
7:18 PM 82.4 °F 88.2 °F 73.4 °F 74% 30.00 in 10.0 mi South 8.1 mph - N/A   Clear
7:36 PM 80.6 °F 85.4 °F 73.4 °F 79% 30.00 in 10.0 mi South 5.8 mph - N/A   Clear
7:55 PM 80.6 °F 85.4 °F 73.4 °F 79% 30.03 in 10.0 mi West 25.3 mph 34.5 mph N/A   Scattered Clouds
8:15 PM 71.6 °F - 69.8 °F 94% 30.02 in 10.0 mi West 12.7 mph - 0.02 in   Mostly Cloudy
8:39 PM 71.6 °F - 71.6 °F 100% 30.02 in 7.0 mi WSW 5.8 mph - 0.07 in Rain Light Rain
8:58 PM 71.6 °F - 71.6 °F 100% 30.01 in 10.0 mi South 4.6 mph - 0.07 in   Scattered Clouds
9:16 PM 71.6 °F - 71.6 °F 100% 30.01 in 10.0 mi Calm Calm - N/A   Clear
9:35 PM 71.6 °F - 71.6 °F 100% 30.00 in 10.0 mi Calm Calm - N/A   Clear
9:55 PM 71.6 °F - 71.6 °F 100% 30.00 in 10.0 mi Calm Calm - N/A   Clear
10:19 PM 71.6 °F - 71.6 °F 100% 30.02 in 10.0 mi SE 4.6 mph - N/A   Scattered Clouds
10:37 PM 71.6 °F - 71.6 °F 100% 30.04 in 10.0 mi SSW 8.1 mph - N/A   Mostly Cloudy
10:56 PM 71.6 °F - 71.6 °F 100% 30.04 in 10.0 mi WSW 3.5 mph - 0.15 in Rain Light Rain
11:15 PM 71.6 °F - 71.6 °F 100% 30.04 in 5.0 mi WSW 6.9 mph - 0.09 in Rain Heavy Rain
11:35 PM 71.6 °F - 71.6 °F 100% 30.03 in 10.0 mi Calm Calm - 0.10 in   Scattered Clouds
11:59 PM 71.6 °F - 71.6 °F 100% 30.02 in 10.0 mi Calm Calm - 0.10 in   Clear